Theta_e
292 291 290 290 290 289 289 289 288 288 287 287 286 286 286 285 285 283 284 284 283 282 281 280 280 280 280 279 279 279 279 279 278 278 279 279 279 279 279 279 279 279 278 278 278 278 279 279 279 279 279 279 279 279 279 279 280 280 279 280 279 278 279 281 281 280 278 277 279 278 278 279 280 281 281 283 281 281 283 283 285 287 285 285 288
290 290 290 289 289 289 288 288 288 286 286 286 285 285 286 285 284 284 284 283 282 282 282 281 281 281 280 280 280 279 279 278 278 279 278 278 278 278 279 279 279 278 278 278 278 278 278 278 278 278 279 279 279 279 279 279 279 279 279 278 279 278 278 280 280 279 277 276 275 275 276 278 280 281 282 282 281 281 282 282 283 286 283 283 287
290 290 290 290 290 289 288 287 287 287 287 286 286 285 285 285 284 284 284 283 282 282 282 281 281 281 280 280 280 279 280 279 278 279 278 278 278 278 278 278 278 278 278 278 277 277 277 277 278 278 278 278 278 278 278 277 278 278 278 277 277 279 278 279 279 279 275 276 276 274 274 274 278 279 280 281 281 281 281 281 281 283 282 282 285
290 291 291 292 291 290 289 288 287 287 286 286 285 285 285 285 284 284 284 283 283 282 282 282 282 281 281 280 280 278 278 278 277 277 277 277 276 277 278 278 277 277 278 277 277 277 277 277 277 277 277 278 277 277 277 277 277 277 277 277 277 276 277 277 279 279 277 275 271 273 273 274 272 274 276 278 280 280 280 279 280 281 281 281 283
289 290 291 291 291 291 290 289 288 287 286 286 286 285 284 284 285 284 284 283 283 282 282 282 281 280 279 279 278 277 277 276 276 276 276 276 277 277 277 277 277 277 277 277 277 276 277 277 277 277 277 277 277 276 276 277 277 277 277 277 276 275 275 276 277 278 277 277 274 272 271 271 272 274 274 274 278 278 278 279 279 280 280 280 281
288 289 290 290 289 290 290 290 289 288 287 287 287 286 286 285 285 285 284 283 283 282 282 281 280 279 278 277 275 275 275 275 275 275 276 276 276 277 277 277 277 277 276 276 276 276 276 276 277 276 276 276 276 276 276 276 276 276 277 277 276 276 275 274 274 277 277 277 277 276 275 272 271 272 272 269 277 277 278 278 278 279 279 279 280
291 290 290 289 291 290 291 291 291 289 289 289 287 286 286 285 285 284 284 283 283 282 282 281 280 279 278 278 278 278 277 278 278 278 278 278 278 277 277 277 277 276 276 276 276 276 276 276 276 276 276 276 276 276 275 276 276 277 277 276 276 276 275 272 272 273 276 276 276 276 276 276 275 271 268 271 270 273 276 277 277 278 279 279 279
290 291 291 291 291 291 290 291 291 290 290 289 288 287 286 285 285 284 284 283 283 282 281 281 280 280 279 278 278 278 278 278 279 278 278 278 277 276 276 276 276 276 275 276 276 276 276 276 276 276 275 276 275 275 275 276 276 277 276 276 276 276 275 272 272 274 273 274 276 275 275 275 275 274 274 271 270 269 271 275 277 277 278 278 279
290 289 290 290 290 291 291 290 291 290 290 289 288 287 286 285 285 284 283 283 283 282 281 280 280 280 279 279 277 278 278 278 279 279 277 277 275 276 276 276 275 275 275 275 275 275 276 275 275 275 275 275 275 275 276 276 275 275 275 274 274 274 275 274 273 273 273 273 274 273 274 273 274 273 273 273 269 268 269 271 273 277 277 278 278
292 291 291 291 291 291 291 291 290 291 291 290 288 287 286 285 284 284 283 283 283 282 281 280 280 280 279 278 277 277 278 278 278 277 276 276 275 275 275 275 275 275 275 275 275 275 275 275 275 275 275 274 275 275 275 275 275 275 274 274 274 273 274 274 273 273 273 274 274 274 272 273 272 272 272 271 271 271 268 269 271 272 271 275 278
291 291 291 291 292 291 292 291 292 292 292 290 289 287 286 285 284 283 283 283 283 282 281 280 280 279 279 278 278 277 278 277 277 276 276 276 275 275 275 275 275 275 275 275 275 275 275 275 275 274 275 275 275 274 274 274 274 274 274 273 273 273 273 273 273 273 273 274 273 273 273 273 272 270 270 271 271 270 270 270 271 272 272 272 275
290 290 291 291 291 291 292 291 291 291 291 291 290 288 287 285 284 283 283 283 282 282 281 280 280 279 278 278 278 278 277 277 276 276 276 275 274 273 274 274 274 274 274 274 274 275 274 274 275 274 274 274 274 275 275 275 274 274 273 273 273 273 273 273 272 271 271 272 272 273 273 273 274 273 273 272 270 270 270 269 270 271 272 272 274
290 290 290 290 290 290 290 291 291 290 289 290 290 289 288 286 284 283 282 283 282 282 280 280 279 279 278 278 278 278 277 277 277 276 276 275 274 273 273 273 273 272 273 273 274 274 274 274 274 274 274 274 274 274 274 274 274 273 273 273 273 273 273 272 271 272 272 271 272 273 273 274 273 274 274 273 273 272 271 269 271 272 270 271 274
289 290 290 290 290 291 291 290 290 290 290 289 289 289 288 286 285 283 283 283 283 281 280 280 279 279 279 278 278 278 277 277 277 276 276 275 274 273 273 273 273 273 273 273 274 274 274 274 274 274 274 274 274 274 274 273 273 273 273 273 272 273 273 272 272 272 272 272 272 272 272 272 273 274 274 273 273 271 270 269 269 270 270 270 272
291 290 290 290 290 291 290 290 290 289 289 289 289 289 288 287 285 284 283 283 282 281 280 279 279 279 279 278 278 278 277 277 277 277 276 274 274 273 273 273 273 274 274 274 274 274 274 274 274 273 273 273 273 273 273 273 273 273 273 273 273 273 273 272 272 272 270 271 271 271 271 272 272 273 273 273 274 272 271 270 269 267 267 269 269
290 290 290 291 291 291 290 290 289 289 289 289 289 289 288 288 287 286 284 284 283 282 281 280 279 279 279 278 277 277 278 277 277 276 275 274 274 273 273 273 273 274 274 274 274 273 273 273 273 273 273 273 273 273 272 272 272 272 272 272 271 273 272 272 272 272 271 271 271 271 270 271 273 273 273 273 273 273 273 272 270 269 266 265 268
290 290 290 290 291 291 290 289 289 289 289 289 289 289 288 287 286 286 286 285 283 283 282 281 280 279 278 278 277 277 277 276 276 276 275 274 274 273 273 273 273 273 273 274 273 273 273 273 273 272 272 272 272 272 272 272 272 271 271 271 271 272 272 271 272 272 272 272 271 271 271 271 272 273 273 273 272 272 272 272 271 270 269 267 266
290 290 290 290 290 290 289 289 289 289 289 289 288 289 288 287 286 285 285 284 284 284 282 281 280 279 278 278 277 277 276 276 276 276 275 274 274 273 273 272 272 273 273 273 273 273 273 272 272 272 272 272 272 272 272 271 271 271 271 271 271 271 271 272 272 272 272 272 272 272 271 270 271 271 271 272 272 272 271 271 271 271 271 268 267
289 289 290 290 290 289 289 289 290 289 289 289 289 289 288 288 287 286 285 284 284 283 283 282 281 279 279 278 278 277 277 276 276 276 275 274 273 273 272 272 273 273 273 273 272 272 272 272 272 271 271 271 271 271 271 271 271 270 270 270 271 271 271 270 271 271 272 272 271 271 271 270 271 271 271 271 272 271 271 272 272 272 271 270 269
288 289 289 289 289 289 288 289 289 288 288 288 288 288 288 288 287 287 286 285 285 284 283 281 281 280 279 278 278 278 277 276 275 275 274 273 273 272 272 271 272 273 273 272 272 271 271 271 271 271 271 271 270 271 271 270 270 270 270 270 271 271 270 270 271 272 271 271 271 270 270 270 271 271 270 270 270 271 271 270 271 271 271 270 270
289 289 289 289 288 288 289 289 289 289 289 288 288 287 287 287 286 286 286 285 284 283 283 282 281 280 279 278 277 277 276 275 274 274 273 273 272 272 272 272 272 272 272 272 271 271 271 271 271 270 270 270 270 270 270 270 270 269 270 270 270 270 270 270 271 271 271 271 270 269 269 270 271 270 270 270 270 270 270 270 270 270 269 270 269
289 289 289 288 288 288 289 289 289 288 287 287 287 287 287 286 286 286 285 285 284 285 283 282 282 281 279 278 278 277 277 275 274 273 272 272 271 271 271 271 271 272 272 271 271 271 271 270 270 270 270 270 270 270 270 270 269 269 269 269 269 269 269 270 270 270 271 270 270 269 269 269 270 269 269 269 270 271 270 270 270 269 269 269 270
288 289 289 288 288 288 288 288 287 287 287 287 287 286 286 286 285 285 284 284 285 284 284 283 282 281 280 279 278 277 276 275 274 273 272 271 271 271 271 271 271 271 271 271 271 271 270 270 270 269 269 269 269 269 270 269 269 268 268 269 269 269 269 269 269 270 270 270 269 269 269 269 270 269 269 269 269 269 270 269 269 270 269 269 270
289 289 289 288 288 288 288 287 287 287 287 287 286 286 286 285 285 284 283 284 284 284 284 283 282 281 280 279 278 277 275 274 273 273 271 271 271 271 271 270 270 270 270 271 271 270 270 270 269 269 269 269 269 269 269 268 268 268 268 268 269 269 269 269 269 269 269 269 269 269 269 269 269 269 269 269 269 269 269 269 269 269 269 268 269
288 288 287 287 287 287 287 287 287 286 286 286 286 285 285 285 285 284 284 284 284 284 283 283 282 280 280 279 277 276 274 274 273 273 271 271 271 271 270 270 270 270 270 270 270 270 270 269 269 268 268 268 268 268 268 268 268 268 268 268 268 268 268 269 269 269 270 269 269 269 269 269 269 268 268 269 269 269 269 269 269 269 269 269 269
287 287 286 286 287 288 287 287 287 287 286 286 286 285 285 285 285 285 284 284 284 284 283 283 281 280 279 278 277 276 274 273 273 272 271 271 271 270 270 270 270 269 270 270 270 270 269 269 269 269 269 268 268 268 268 268 268 268 268 267 267 267 268 268 268 269 269 269 269 268 269 269 268 268 268 269 269 269 269 269 269 269 269 270 269
286 286 286 287 287 286 287 287 287 287 287 287 286 285 285 285 284 284 284 284 284 283 283 282 282 280 279 278 276 276 274 273 272 272 271 271 270 270 270 269 270 269 269 269 269 269 269 269 268 268 268 268 268 268 268 268 267 268 267 266 267 267 267 267 268 268 268 268 268 268 268 269 268 268 268 268 268 268 268 268 269 269 269 269 268
286 286 286 286 286 286 286 287 287 287 287 287 287 286 286 285 284 284 284 284 283 283 282 282 281 280 279 278 277 276 274 273 272 271 271 271 270 270 269 270 269 269 268 268 269 268 269 268 268 268 268 268 267 267 267 267 267 266 266 266 266 266 267 267 267 268 268 268 268 268 268 268 268 268 268 268 268 268 268 268 269 269 269 268 268
285 285 285 285 286 286 286 286 286 286 286 286 286 286 286 285 285 284 284 283 283 283 282 282 281 279 279 278 277 275 274 273 272 271 270 270 270 269 269 269 269 268 268 268 269 268 268 267 267 267 267 267 267 266 266 266 265 265 265 265 266 266 266 266 267 267 268 268 268 268 268 268 268 269 270 270 270 270 268 268 269 269 268 268 268
284 285 285 285 285 285 286 285 285 285 285 285 285 285 285 284 283 283 283 284 283 283 282 281 280 279 279 278 276 274 272 272 271 270 270 269 269 269 268 268 268 268 268 268 268 267 267 266 266 266 266 266 266 266 267 268 268 265 264 265 265 265 266 266 266 266 267 267 267 268 268 270 270 271 271 271 272 272 272 270 270 269 268 268 268
284 285 285 285 285 285 285 285 285 285 285 285 285 284 284 283 283 283 283 283 283 282 282 281 280 279 278 276 274 273 272 271 270 270 269 269 268 268 268 267 267 267 267 267 267 266 266 266 265 265 265 265 265 265 267 268 269 270 266 264 264 265 265 265 265 266 266 267 268 268 268 270 271 272 272 273 273 274 274 274 273 272 271 269 268
283 284 284 284 284 284 284 284 285 285 285 284 283 283 282 282 283 282 282 283 282 282 282 281 280 279 277 275 274 272 271 270 269 269 269 268 268 268 267 267 266 266 266 267 266 265 265 265 265 264 264 264 264 266 268 268 269 270 270 266 265 265 265 265 266 266 267 268 269 269 270 270 270 271 271 271 273 274 275 275 275 274 273 273 272
283 283 283 283 283 283 284 284 285 284 284 284 283 282 282 282 282 282 282 282 281 281 281 280 279 277 276 275 274 271 270 269 269 268 268 268 267 267 266 266 265 266 266 265 265 265 264 265 264 263 263 263 263 266 268 269 269 270 271 270 267 265 266 266 267 267 267 268 269 270 270 271 271 273 273 272 272 272 274 275 275 275 275 274 274
283 283 283 283 283 283 284 284 284 284 284 284 283 283 283 283 282 282 281 281 281 281 281 279 277 276 275 275 274 272 270 269 269 268 267 267 266 266 266 266 266 266 265 265 265 264 264 263 263 263 262 263 262 265 267 268 269 270 271 271 269 268 267 267 268 268 269 269 270 270 271 271 272 273 273 273 273 272 272 272 273 274 274 274 275
282 282 282 283 283 283 283 283 282 282 283 283 283 283 282 282 281 280 280 280 280 280 280 279 276 275 274 274 273 271 270 269 268 267 267 266 266 265 265 265 265 265 264 264 264 263 263 263 262 262 262 262 262 265 267 268 269 270 270 271 269 269 269 269 269 270 270 271 271 272 272 272 273 274 274 274 273 273 272 271 271 272 273 273 274
282 282 282 282 282 281 280 280 281 281 281 281 281 281 280 279 280 279 279 279 279 279 279 277 275 275 275 275 273 271 270 268 268 267 266 265 265 265 265 265 265 265 264 264 264 263 263 262 262 261 261 261 261 266 267 268 269 269 270 268 268 268 268 268 269 270 271 272 272 272 273 273 274 275 276 276 275 274 272 271 270 270 271 272 272
282 282 281 281 281 279 279 280 279 280 279 279 279 279 278 277 277 277 277 277 278 278 277 275 275 275 275 275 274 272 271 269 267 267 265 265 264 264 264 265 264 264 264 263 263 263 263 262 261 261 260 260 261 263 266 268 268 269 269 267 268 268 268 268 269 270 271 272 272 273 273 274 274 275 276 276 277 275 272 271 270 270 270 270 271
281 280 280 279 279 279 279 278 277 277 278 278 277 276 276 275 275 276 276 276 277 277 276 275 275 275 274 274 273 272 271 269 267 266 266 265 265 265 264 264 263 263 263 263 263 262 262 262 261 260 260 260 260 263 265 267 268 269 269 267 267 268 268 269 269 270 272 273 273 275 275 274 275 275 276 277 277 276 272 271 270 270 269 269 270
279 278 277 277 277 277 277 276 276 275 276 276 276 275 274 274 274 274 275 276 275 274 275 274 274 275 274 274 273 272 270 269 267 267 266 265 264 264 264 264 263 263 263 263 262 262 262 261 261 261 262 261 260 262 265 266 268 269 269 268 268 268 268 269 270 271 272 273 274 275 276 276 275 275 276 277 277 276 274 272 271 270 269 269 271
278 277 277 277 277 276 274 274 274 274 275 275 274 273 272 273 273 274 274 272 272 273 274 275 274 273 273 273 273 271 270 269 268 267 266 265 265 264 264 263 263 263 263 263 262 261 261 261 261 261 260 261 260 261 263 266 267 269 270 269 269 268 268 269 270 271 271 273 273 273 274 275 275 276 276 277 277 277 276 274 273 272 271 271 273
276 275 277 275 275 273 272 272 273 273 273 272 272 271 271 272 273 272 271 272 273 274 275 273 272 272 272 272 271 271 270 269 268 267 266 265 265 264 263 263 262 262 262 261 261 261 260 260 260 261 260 260 261 261 262 266 268 269 270 271 269 269 270 270 270 271 272 272 272 273 274 274 274 275 276 276 277 277 277 276 275 273 273 275 276
276 276 275 273 271 271 271 272 272 271 270 271 271 271 271 272 270 269 271 272 273 271 270 270 270 270 270 270 270 270 270 268 267 266 265 264 264 264 263 262 262 261 260 260 260 260 259 259 260 260 260 261 262 262 262 264 267 269 270 271 270 270 271 271 271 271 271 272 272 273 273 273 273 274 275 276 276 277 277 276 276 277 278 278 276
273 272 272 271 270 270 271 270 269 269 270 270 270 270 270 269 268 270 270 269 268 268 268 268 268 268 268 269 269 269 268 267 266 265 264 263 263 262 262 262 261 260 259 259 258 258 258 258 259 260 260 261 261 262 264 264 266 269 270 271 272 272 273 272 271 270 271 271 272 272 273 273 274 274 275 276 276 277 276 276 278 278 278 277 277
272 271 270 270 269 270 269 268 268 268 269 269 269 270 268 268 268 268 267 268 268 266 266 267 267 267 267 268 268 268 268 266 265 264 264 262 261 261 261 261 260 259 259 258 258 258 258 257 257 259 260 261 262 263 264 266 266 268 270 271 273 274 274 272 272 271 272 272 272 272 273 274 274 275 275 276 277 276 275 275 276 276 276 275 275
269 269 270 269 269 268 267 266 267 267 268 268 269 266 265 264 265 265 265 265 265 265 264 265 265 266 266 266 267 268 266 265 264 264 263 262 261 260 260 260 259 259 259 258 258 258 258 258 259 259 261 262 263 264 265 266 268 269 271 272 273 273 273 274 272 272 272 272 273 273 274 274 275 275 275 274 273 273 273 273 273 273 273 273 273
269 268 268 268 268 266 265 264 265 266 267 269 265 265 263 263 264 264 264 264 263 262 262 263 263 264 264 265 266 266 265 264 264 263 263 263 261 260 260 259 259 258 258 257 257 258 258 259 259 260 261 262 264 265 266 266 268 269 270 270 270 270 271 272 272 272 273 273 273 273 273 273 272 272 271 270 270 270 271 271 271 271 270 270 271
267 267 267 266 265 263 263 263 263 265 267 265 264 263 262 263 262 262 262 262 261 261 261 261 262 263 263 264 265 265 265 263 263 262 262 262 261 260 260 259 258 258 257 257 257 257 258 259 259 261 262 263 264 265 266 267 268 268 268 268 268 269 270 271 271 271 272 271 271 270 270 270 270 270 269 269 268 268 268 269 269 269 269 270 271
267 267 266 264 263 262 262 262 263 264 265 263 262 261 261 260 260 260 260 260 260 260 260 260 261 262 263 264 265 263 262 262 262 261 261 261 261 260 259 259 258 258 257 257 257 258 258 259 260 262 263 263 265 266 266 267 268 267 268 268 268 268 269 269 270 270 271 270 269 269 268 267 267 266 266 266 266 266 266 266 267 267 268 268 269
265 265 264 262 262 261 261 261 262 262 262 261 260 260 260 259 259 259 259 259 259 259 259 260 261 261 262 263 264 264 263 262 261 261 261 261 260 259 259 260 260 260 259 259 258 259 260 261 262 263 263 264 265 265 266 268 268 268 268 268 268 268 269 270 270 271 267 266 267 267 267 267 267 266 266 266 265 265 265 264 262 264 267 266 268
265 263 263 262 261 260 260 260 261 261 260 259 259 259 259 259 259 259 259 258 258 258 258 259 260 261 262 263 264 264 263 262 261 260 260 259 260 262 261 260 259 261 262 264 263 261 261 262 262 263 265 265 266 267 268 269 269 270 270 271 270 271 271 271 271 271 268 266 265 266 265 265 265 265 265 264 263 263 263 263 263 264 264 265 266
263 261 261 260 259 259 259 260 259 259 258 258 257 258 257 258 258 259 258 258 257 257 258 259 260 261 261 262 263 263 263 262 261 260 260 259 258 260 264 264 263 262 263 265 266 266 266 265 263 263 264 266 268 269 269 270 270 271 271 271 271 270 271 271 270 266 265 265 264 265 264 263 262 262 262 261 260 260 260 261 261 262 263 264 263
Wind_Speed
8 7 10 10 10 10 9 10 10 11 13 14 13 15 15 14 12 14 11 11 10 10 9 9 8 8 7 8 8 7 7 7 6 7 6 6 7 7 7 7 7 7 7 7 7 6 6 6 6 6 5 5 6 7 6 6 6 6 6 6 7 8 9 8 8 7 9 9 8 10 11 12 12 11 8 5 3 3 3 3 3 3 3 5 6
10 11 11 9 9 10 9 9 10 13 13 12 15 15 14 15 16 14 10 12 12 12 10 10 10 9 8 8 7 7 7 7 7 7 7 6 8 8 8 8 8 8 7 7 7 7 7 7 7 7 6 6 6 6 6 6 6 6 6 7 6 7 7 8 8 7 8 8 10 11 10 8 9 7 6 5 4 4 4 3 3 3 3 5 5
9 11 11 9 9 9 8 9 10 12 13 13 14 14 15 14 14 14 12 12 12 12 11 11 9 10 9 8 7 6 7 7 6 6 6 7 7 8 8 8 8 8 8 8 7 8 8 8 8 7 7 6 6 7 7 8 7 7 7 7 7 6 7 7 8 6 9 8 9 10 7 8 4 4 4 3 4 5 4 4 4 4 4 5 5
10 10 11 10 7 7 7 8 9 9 11 12 13 14 12 13 13 13 13 12 11 12 12 11 10 9 9 8 7 7 6 5 7 7 8 9 9 9 9 9 9 9 8 8 8 8 9 8 8 7 7 7 7 7 8 8 8 7 7 7 7 7 7 7 6 6 6 8 7 5 8 7 7 2 5 6 5 5 4 4 4 5 5 5 4
10 11 12 10 10 10 8 8 7 9 10 12 12 11 9 13 13 13 12 12 11 11 13 10 9 8 7 7 7 7 8 8 8 9 9 9 8 9 10 10 9 9 8 9 9 9 9 8 8 8 7 7 7 8 8 8 8 8 7 7 8 7 7 7 7 6 7 5 7 7 5 3 3 5 9 10 6 5 4 6 7 6 5 5 5
9 11 11 12 12 11 11 9 9 9 11 11 10 11 12 12 12 12 11 11 11 12 12 11 10 10 10 9 9 9 9 9 11 10 9 9 9 8 8 9 9 9 8 9 9 9 9 9 9 8 8 8 8 8 8 7 8 9 8 7 8 8 7 6 6 6 7 7 8 8 8 7 8 7 8 6 5 7 9 8 6 4 6 7 6
4 7 9 9 10 10 11 11 9 9 11 9 8 10 12 13 12 12 12 11 11 12 13 11 12 11 14 13 11 11 10 10 9 8 8 7 6 7 7 8 9 9 9 9 9 9 9 9 9 9 8 8 7 7 8 8 7 7 7 7 7 6 6 5 5 5 5 6 6 8 9 9 7 6 5 10 11 6 4 4 6 8 8 8 7
5 7 8 8 9 9 11 12 11 10 11 8 9 10 12 13 12 12 11 11 11 10 12 13 12 12 13 14 12 13 12 11 8 8 7 6 7 8 7 7 9 9 9 9 9 10 9 9 9 9 9 8 8 8 8 7 6 6 7 7 6 6 7 6 5 5 5 4 4 6 7 7 8 9 10 8 10 12 11 8 8 8 6 6 7
4 7 9 11 11 12 11 11 12 13 10 9 10 10 10 10 11 11 13 13 12 13 12 14 14 13 13 12 13 12 11 10 8 7 7 7 9 8 8 8 8 9 9 9 10 10 10 10 9 9 9 9 8 8 8 7 8 7 7 7 8 7 6 6 5 5 5 5 5 5 5 6 6 7 8 9 9 10 12 9 9 7 7 7 5
4 6 8 9 10 11 11 10 11 10 8 8 9 9 9 9 10 12 14 12 11 13 13 15 16 14 13 14 15 12 10 9 9 9 8 8 9 9 8 8 8 8 9 10 10 11 11 10 10 10 10 9 8 8 8 8 8 8 8 8 8 8 6 6 6 5 5 6 6 6 5 5 6 5 6 6 9 11 11 10 9 11 11 7 5
7 8 9 10 10 10 10 10 11 10 7 7 8 8 8 9 10 12 15 12 12 13 13 15 14 15 15 15 16 15 14 11 10 10 10 10 9 9 9 8 8 8 8 9 10 11 11 11 10 10 9 9 9 9 9 8 8 8 7 8 9 9 7 7 7 7 5 6 7 6 7 6 6 6 6 5 6 7 9 9 9 8 10 13 7
8 9 10 11 12 12 12 13 14 13 12 11 7 7 7 8 9 12 13 14 12 12 13 15 14 15 16 16 16 16 14 11 13 13 11 12 10 9 8 8 8 8 8 8 9 11 10 10 11 11 10 9 9 8 8 8 7 7 7 7 7 9 9 8 8 7 8 6 7 7 8 7 7 6 5 5 5 7 8 10 9 9 10 9 11
9 9 10 10 11 12 13 13 12 12 12 13 13 10 8 8 10 11 14 14 12 12 13 15 15 16 15 16 16 14 15 15 14 13 12 10 10 10 9 8 8 8 9 9 10 11 10 10 10 10 9 9 9 9 8 8 7 7 7 8 8 8 8 8 7 8 8 7 6 7 7 7 7 7 6 6 6 7 7 9 9 8 9 10 8
9 9 9 10 11 12 12 12 12 12 14 15 14 13 10 8 9 10 14 13 12 11 13 14 16 17 15 15 15 13 14 15 14 13 12 10 9 10 10 9 8 9 9 10 9 10 10 10 10 10 10 9 9 9 9 8 8 8 8 8 8 8 8 9 9 9 8 9 8 6 6 6 7 7 7 6 6 6 7 8 9 8 10 10 9
8 10 11 13 13 14 13 12 12 13 15 15 14 15 14 10 9 11 13 13 12 13 12 15 15 15 16 15 15 13 14 13 13 11 11 11 10 10 10 9 9 8 9 9 9 10 11 10 11 10 10 10 9 9 8 8 8 8 7 8 8 7 8 8 8 9 8 9 8 7 6 6 6 7 6 7 6 6 7 7 7 8 8 9 9
11 12 13 14 13 12 12 11 13 14 16 15 17 16 16 16 15 13 13 14 13 12 13 14 14 14 15 17 17 16 13 12 11 11 10 11 10 10 10 10 9 8 8 9 10 10 10 11 11 11 10 10 10 10 9 8 9 8 8 8 9 7 8 10 9 9 10 10 10 9 7 7 7 7 7 7 6 5 6 6 7 8 8 9 8
13 15 14 16 14 13 11 12 14 15 15 16 17 17 17 17 17 18 17 14 13 13 14 13 13 14 16 16 16 16 17 17 14 14 13 11 11 10 9 10 9 9 8 9 10 10 10 11 11 11 11 10 10 10 10 9 9 9 8 9 9 9 9 9 9 9 9 9 9 10 8 7 7 7 7 7 6 5 6 6 7 8 8 9 8
16 16 15 15 14 14 12 12 15 16 17 17 17 16 14 15 16 17 17 18 18 16 13 12 13 14 15 16 17 17 16 16 15 14 12 11 11 10 10 9 10 9 9 8 9 11 11 11 11 11 10 11 11 10 10 10 10 9 9 9 9 9 9 8 8 9 9 8 8 8 7 7 7 7 6 7 6 6 6 6 7 8 8 8 8
16 16 16 15 14 12 12 15 16 16 16 16 16 16 16 16 15 15 17 17 17 14 13 11 11 11 11 14 17 16 16 15 15 14 12 12 13 11 11 10 9 10 10 10 10 11 11 11 11 11 10 11 11 11 10 10 10 9 9 8 9 9 9 9 9 8 8 8 9 9 9 7 7 7 7 6 6 6 6 7 7 7 8 8 9
17 16 15 14 13 11 13 15 17 17 17 16 17 16 18 18 18 18 18 17 17 17 15 14 13 12 13 13 14 15 15 15 14 14 13 14 13 12 11 11 11 10 10 11 11 11 11 11 11 11 11 11 11 11 11 11 10 10 9 8 8 9 10 10 9 9 8 8 9 9 9 7 7 6 7 7 7 6 6 6 7 8 8 8 8
17 17 16 15 12 11 14 15 15 15 15 16 16 17 17 17 19 20 21 20 19 17 15 14 13 13 14 15 15 15 17 14 14 14 13 13 11 11 11 10 10 11 10 11 12 12 12 12 12 11 11 11 11 11 10 10 10 10 9 9 9 9 10 9 9 10 9 9 8 9 9 9 7 7 6 6 6 7 6 7 7 7 8 8 9
17 17 16 13 11 13 15 14 14 16 17 19 18 18 19 18 18 19 19 18 19 19 17 17 15 14 14 15 16 15 14 13 14 14 13 12 11 11 11 11 12 11 11 11 12 11 11 12 12 12 12 11 11 11 11 10 10 10 11 8 9 10 10 10 10 10 10 8 9 9 9 8 8 8 7 7 7 8 7 7 8 8 8 9 9
18 17 14 11 11 13 14 16 18 19 19 20 20 19 18 19 18 18 19 20 19 18 18 16 16 16 16 15 14 13 13 14 15 13 13 12 11 11 11 11 11 10 10 11 11 12 12 12 12 12 11 11 11 11 11 11 11 11 10 10 9 9 10 10 11 11 10 8 8 9 9 9 8 9 10 9 9 9 8 9 9 9 9 9 10
18 16 11 10 11 13 14 15 19 21 21 21 20 19 18 17 15 16 19 19 18 17 18 17 17 18 18 17 15 13 14 14 14 13 14 13 12 11 11 11 11 10 10 10 11 11 12 12 12 12 12 11 12 11 11 10 12 11 10 10 10 10 10 11 11 11 11 10 10 10 10 10 9 10 9 9 9 9 9 9 9 9 10 10 9
19 16 12 13 14 15 14 15 15 16 16 17 18 18 19 19 17 17 18 17 17 16 16 16 16 19 18 17 16 14 13 15 15 13 14 13 13 11 11 12 11 11 10 10 10 11 12 12 12 13 12 12 12 12 12 12 11 10 11 10 10 10 11 11 11 11 11 11 11 11 10 9 9 10 9 9 9 11 10 9 9 9 9 9 9
19 15 14 15 15 18 20 19 18 16 13 12 13 15 16 19 19 16 15 17 16 15 16 16 15 16 16 18 16 14 14 15 15 13 13 13 12 11 11 10 11 11 11 10 11 10 11 12 13 13 12 12 12 12 12 12 12 11 10 10 10 11 11 10 11 10 10 10 10 11 10 10 10 11 10 9 9 11 10 10 10 9 9 8 9
20 17 17 19 23 26 25 24 19 16 14 13 13 15 15 16 16 17 17 17 16 15 17 17 16 16 16 16 15 14 14 13 13 12 11 11 11 11 11 11 10 11 10 11 11 12 11 11 12 12 12 12 12 12 12 13 12 12 11 11 11 11 10 10 10 11 10 10 11 10 10 11 11 11 11 11 10 10 10 11 10 10 9 9 9
17 20 23 24 24 25 25 24 24 22 18 16 16 14 15 14 16 18 20 20 18 17 17 16 15 15 14 16 15 13 13 12 10 10 11 11 11 11 11 10 10 10 11 11 11 11 11 11 11 11 11 11 11 12 13 12 12 11 11 11 11 11 11 10 10 11 11 11 11 11 11 11 11 11 11 10 10 9 9 10 10 9 9 9 9
22 24 25 25 24 24 24 24 24 24 24 24 21 18 15 16 18 19 18 20 19 16 16 16 15 14 15 14 14 11 9 10 10 10 11 10 10 10 10 9 9 10 9 10 11 10 10 10 10 10 10 11 12 12 11 11 11 12 11 11 11 11 11 10 10 10 10 10 10 10 11 11 12 14 16 14 13 13 9 9 10 9 10 9 10
24 24 24 24 25 25 26 27 28 27 25 25 20 18 18 18 19 21 24 22 20 17 16 15 14 14 13 14 14 11 8 9 9 10 10 10 9 9 9 9 9 9 9 9 9 9 10 10 10 11 12 11 11 11 13 17 15 10 10 10 10 10 10 10 10 9 10 10 11 10 10 15 16 17 17 18 19 20 19 14 10 10 10 10 9
25 25 26 26 27 27 26 26 25 25 26 21 16 17 16 18 20 22 22 22 21 18 18 15 13 11 10 11 11 10 8 9 10 9 7 8 9 8 8 9 9 9 9 9 9 10 10 9 11 12 12 12 11 11 17 16 18 20 13 11 10 10 10 10 10 10 9 9 9 10 10 12 14 15 15 19 20 21 21 22 21 18 14 11 10
26 26 27 28 27 28 28 28 27 24 24 21 16 15 12 15 22 25 25 25 25 22 18 15 12 10 8 10 11 10 8 8 7 8 8 8 8 8 8 9 8 9 9 9 9 10 9 9 10 12 12 12 12 14 17 18 19 20 19 12 11 10 9 9 9 10 9 9 9 9 9 9 9 11 12 13 17 20 21 22 22 22 21 19 16
25 26 26 25 25 26 26 25 23 23 19 20 17 13 14 22 26 28 25 24 22 22 22 14 10 7 8 10 9 8 8 7 7 7 7 7 8 8 9 9 9 9 8 9 10 9 10 10 11 12 12 12 12 17 18 19 19 20 20 18 9 11 10 10 10 10 10 10 9 8 9 9 8 15 13 12 11 12 17 22 22 21 22 22 21
23 23 24 24 22 22 23 25 22 21 21 16 14 16 19 23 26 25 25 22 22 21 20 10 8 6 8 11 11 7 8 7 6 6 7 7 8 8 8 7 7 8 9 9 9 9 10 10 10 11 11 11 12 15 19 20 19 19 19 17 12 10 11 11 12 12 11 11 11 10 9 9 9 10 10 11 11 10 10 10 11 12 13 16 22
23 24 25 25 25 25 25 25 24 23 20 15 16 19 24 24 23 24 23 23 23 22 19 10 6 7 8 9 9 8 9 7 7 7 7 8 8 8 8 8 7 8 9 8 9 11 10 10 10 10 10 11 11 16 18 20 19 19 18 17 11 11 10 11 11 11 12 11 10 10 10 9 9 10 10 11 10 9 9 8 9 9 10 10 10
23 25 25 25 25 25 25 25 23 23 21 21 22 22 23 23 23 23 22 22 23 23 18 13 7 8 9 10 7 8 8 8 10 10 9 8 8 9 9 8 7 7 7 7 8 8 9 9 9 9 9 10 11 17 19 19 19 18 18 12 11 11 11 11 11 12 11 11 10 11 10 10 10 9 11 15 13 9 8 8 8 8 9 9 10
24 25 26 25 25 25 25 24 24 24 23 22 23 23 23 23 23 22 22 23 23 18 14 9 7 12 13 10 9 11 11 8 9 11 12 9 8 8 8 7 7 8 8 9 9 8 8 9 9 9 10 10 11 15 18 19 18 18 15 10 10 10 11 12 12 11 11 11 11 11 10 10 10 10 11 13 15 14 8 9 8 9 8 7 9
25 27 27 27 26 25 25 24 26 26 24 22 23 23 23 23 22 22 22 22 19 14 11 8 11 13 15 14 11 11 11 9 8 10 10 9 7 7 8 7 8 8 9 9 8 8 8 8 9 9 10 10 12 14 17 18 18 18 16 10 9 10 11 11 10 11 10 10 11 17 15 12 11 9 11 14 15 13 8 9 9 9 11 10 10
26 26 26 27 26 25 24 24 25 25 25 25 25 25 22 22 21 20 20 18 16 15 11 14 14 14 14 13 11 10 9 8 8 10 9 9 8 8 7 6 6 6 7 7 7 7 7 7 8 9 12 13 12 12 16 17 18 17 14 10 10 9 10 10 9 10 10 10 10 12 16 14 10 10 12 13 14 12 8 9 10 9 10 12 10
25 25 25 25 23 24 24 25 25 25 26 24 24 22 23 21 21 19 18 18 18 18 17 15 14 14 15 15 15 13 12 11 10 9 7 8 6 7 7 7 8 8 8 8 7 6 7 7 7 8 9 10 12 11 11 16 16 16 17 11 9 10 10 10 9 8 9 8 7 6 7 9 11 11 12 14 15 16 12 9 10 9 10 12 9
23 23 24 21 21 20 21 22 20 22 23 23 22 20 20 19 17 18 19 17 18 18 16 16 16 16 16 17 16 15 12 9 8 7 6 6 6 7 8 8 8 8 7 7 7 6 6 7 7 8 9 10 10 10 10 15 16 16 17 16 10 10 9 9 9 9 9 8 8 8 7 9 11 12 13 14 16 17 17 11 10 11 12 13 11
22 23 22 21 22 22 22 21 21 25 24 22 21 21 20 16 18 21 22 21 19 18 18 19 18 18 17 17 16 16 10 8 5 5 6 7 7 8 8 9 7 7 8 7 6 6 6 7 7 8 9 9 10 14 10 13 16 17 16 17 10 9 10 8 9 7 7 7 6 6 7 9 10 11 14 16 18 18 21 14 12 15 20 21 16
25 25 26 24 22 22 20 23 24 23 21 22 23 22 18 18 21 21 19 19 18 17 18 19 17 17 17 16 16 16 11 4 5 6 7 8 8 8 8 8 7 7 6 6 6 6 6 6 7 7 8 9 9 9 15 12 15 16 16 15 16 12 15 10 8 8 8 7 6 7 7 10 11 13 15 18 19 21 19 14 21 22 22 20 16
24 24 24 25 24 21 21 23 21 21 21 21 20 18 20 22 22 20 22 19 17 19 19 19 18 17 17 17 17 15 9 5 5 7 8 8 8 8 7 7 7 6 6 6 6 6 6 7 7 7 7 8 8 8 10 15 13 15 15 16 15 18 17 10 8 7 7 7 6 6 7 11 13 14 14 16 18 14 6 5 5 6 6 3 1
24 24 24 23 20 21 22 23 21 24 21 20 14 19 24 24 21 21 22 22 21 20 20 20 19 18 18 18 17 14 7 7 6 7 9 9 7 8 7 6 6 6 6 6 6 6 6 6 6 6 6 6 6 6 6 8 13 13 15 16 17 13 11 13 8 6 6 6 7 8 10 13 15 15 12 6 1 3 4 5 5 5 3 1 3
22 22 25 23 21 23 23 24 25 24 22 15 18 18 21 22 21 21 21 21 21 23 22 22 20 19 20 20 19 14 9 7 7 7 9 9 9 8 8 6 6 6 6 6 6 6 6 6 6 6 5 5 5 5 4 4 5 5 5 4 2 3 4 6 7 6 7 8 10 7 0 5 7 6 4 2 1 2 3 4 3 4 3 3 3
22 24 24 22 24 24 26 27 26 25 19 15 20 18 20 20 22 21 21 21 23 23 23 21 20 19 19 18 17 11 7 4 5 6 6 7 7 7 7 7 7 6 6 6 6 6 6 6 6 5 5 4 4 4 4 4 4 3 3 2 3 3 5 5 5 4 3 0 3 6 3 3 5 7 6 4 3 5 4 3 1 1 2 3 4
21 21 21 22 23 24 25 26 24 22 21 19 19 19 19 21 20 21 21 22 23 22 22 22 22 19 16 16 15 10 7 5 5 6 6 6 7 7 8 8 8 9 8 7 7 7 7 7 6 5 4 4 4 4 4 5 5 3 4 4 3 4 5 5 5 6 4 2 3 5 5 2 1 2 2 2 1 1 1 1 1 2 2 2 4
22 22 22 21 22 25 26 26 22 20 19 20 22 19 20 23 22 21 22 24 23 24 23 22 20 16 16 14 12 9 5 5 5 5 7 7 8 8 8 7 7 7 6 6 7 7 7 6 5 5 4 4 4 5 5 5 4 6 5 5 6 5 5 6 7 7 4 3 2 1 1 2 1 2 1 1 0 1 1 0 0 2 2 2 3
20 19 19 21 22 23 23 22 18 19 20 22 21 21 20 21 21 21 23 24 25 22 21 19 16 15 14 14 13 8 5 5 5 5 5 5 5 9 8 7 6 9 13 14 11 7 6 5 5 5 4 4 3 3 4 6 8 9 11 13 12 11 11 10 10 9 7 4 3 3 2 2 1 1 2 1 1 1 1 1 0 1 1 2 3
23 23 24 25 24 23 22 19 17 19 21 20 21 21 22 22 22 21 23 25 26 21 18 17 16 15 15 14 13 9 5 4 4 5 5 5 4 5 11 13 11 10 12 15 16 15 13 11 7 4 5 10 9 8 6 6 6 8 8 3 5 2 8 13 15 8 4 3 2 4 2 2 2 1 1 0 0 0 1 1 1 1 1 3 2
Wind_Direction
281 287 275 266 260 253 250 248 248 245 240 236 236 234 229 226 219 222 211 204 201 202 205 205 208 214 220 227 234 230 223 220 223 224 223 226 224 226 231 233 236 241 246 248 248 250 251 251 245 241 238 243 242 244 248 261 262 261 270 274 276 280 284 287 292 299 300 295 292 295 296 285 275 276 269 246 253 275 293 305 294 323 331 331 318
284 283 276 264 256 249 246 246 244 245 243 232 232 233 231 226 225 227 211 206 208 208 206 207 211 213 216 221 223 226 222 220 226 217 215 223 222 225 227 228 232 234 242 244 246 245 247 245 239 239 234 239 242 243 245 248 250 251 256 264 260 266 277 290 293 304 292 305 316 312 299 283 272 255 259 264 270 296 292 291 300 293 330 323 320
286 275 277 273 262 256 247 250 250 246 256 245 238 236 233 227 227 226 219 210 211 208 207 213 209 214 215 226 221 233 229 234 237 230 224 224 224 223 224 228 229 231 234 239 244 245 244 242 241 239 234 236 240 234 232 232 238 240 244 257 270 262 269 278 279 279 295 307 299 291 299 316 295 253 263 254 284 288 284 284 292 295 302 319 314
282 286 293 294 288 275 259 258 258 257 255 256 249 241 237 233 231 224 223 217 214 208 209 214 214 211 213 227 230 230 240 232 228 231 229 227 229 224 225 224 226 230 231 234 239 241 240 240 240 238 237 233 237 242 239 238 235 238 236 239 247 263 263 269 265 274 286 307 305 308 309 311 309 281 324 308 287 286 275 282 299 299 301 317 316
283 294 297 304 310 302 289 272 263 256 256 254 251 242 235 239 237 230 227 223 219 212 206 204 206 209 210 219 226 238 241 239 237 235 223 223 226 222 221 219 221 227 230 233 237 239 236 236 238 239 237 236 236 240 242 240 240 237 238 240 241 251 261 267 271 269 268 264 279 301 305 285 263 316 348 302 293 285 278 295 300 286 301 310 316
267 285 294 302 301 301 299 286 267 262 262 257 251 249 246 247 241 235 231 230 226 217 205 199 206 208 204 207 214 215 227 219 222 221 214 211 215 218 217 213 216 222 228 231 232 234 233 233 235 237 237 236 234 240 242 242 235 236 234 234 237 234 249 260 263 264 261 257 253 261 281 301 322 323 320 305 290 295 288 288 275 278 301 310 307
266 262 275 286 295 301 299 302 292 275 271 270 261 252 251 251 248 238 234 233 228 221 204 204 212 213 214 215 216 219 226 229 222 220 217 217 214 216 216 215 218 223 225 225 229 229 232 232 232 234 237 236 236 238 238 235 234 228 224 226 233 230 222 236 243 260 262 250 243 256 265 275 289 303 287 290 304 292 272 289 297 295 295 294 300
304 306 306 302 298 301 304 305 303 297 296 288 270 267 259 253 246 241 238 235 230 217 208 208 216 217 217 219 222 228 228 235 223 215 214 216 218 219 220 222 219 222 224 223 224 227 229 232 230 232 233 233 233 234 235 232 228 215 219 229 230 231 223 226 230 241 248 258 229 245 254 263 268 266 267 284 278 293 294 294 289 293 292 297 293
320 312 313 312 308 308 307 307 305 302 300 291 289 283 271 262 252 245 242 239 233 220 215 213 218 222 220 219 225 226 229 232 228 220 218 213 220 221 222 223 223 220 220 223 223 224 227 230 229 230 229 230 229 232 230 227 225 220 213 216 221 224 219 214 222 231 233 248 253 248 246 253 258 254 259 257 268 281 283 294 305 302 298 296 298
324 307 299 298 299 302 300 298 298 301 300 291 287 282 273 264 252 246 248 241 237 227 218 220 219 222 225 225 225 226 220 221 218 221 217 214 219 219 221 222 222 221 220 222 223 221 223 227 229 227 229 230 230 231 230 224 219 219 223 227 224 221 226 220 220 229 237 243 250 264 256 244 237 242 244 258 264 265 281 289 291 302 300 293 293
327 316 305 300 299 297 300 305 305 306 301 296 292 285 279 269 259 254 251 249 239 231 221 223 221 221 228 229 227 227 222 217 215 216 214 213 217 217 217 224 225 227 225 224 220 218 219 223 227 227 227 228 229 229 227 223 221 222 223 223 227 223 224 221 223 226 232 232 235 246 251 250 250 245 245 247 256 271 282 288 293 287 288 293 298
314 308 307 309 313 316 320 322 325 323 323 319 301 287 275 268 263 261 261 252 243 233 228 229 226 226 230 232 231 228 222 219 219 221 211 210 209 212 216 219 222 224 227 226 221 215 216 219 221 225 226 225 226 227 226 221 222 224 223 221 222 222 227 228 223 223 223 232 231 238 247 254 256 258 262 268 273 278 283 286 294 298 288 291 297
308 306 309 314 318 320 323 323 324 327 326 324 322 312 292 279 270 266 266 261 248 236 231 231 228 230 228 230 233 230 226 224 225 225 219 210 205 208 209 215 215 218 220 224 224 215 214 217 216 218 221 221 223 223 225 225 226 225 225 224 227 227 224 224 227 223 217 221 224 227 240 246 252 258 258 256 264 269 273 282 279 287 290 288 297
298 302 310 318 320 322 324 325 328 330 332 330 328 322 313 289 279 264 269 269 260 242 236 235 234 234 232 231 231 229 229 224 226 225 218 210 205 207 208 212 216 219 219 222 222 218 217 219 219 220 222 223 221 222 225 224 225 229 227 227 227 226 228 227 230 228 226 225 230 235 233 243 252 259 258 251 254 257 266 272 283 279 277 285 287
311 324 327 328 327 327 326 330 334 333 333 333 334 331 327 310 296 285 282 276 261 249 243 239 241 236 234 232 231 229 230 226 225 222 215 209 207 206 209 209 216 219 223 224 221 221 220 220 221 221 221 222 224 222 221 227 228 227 230 230 234 235 231 226 229 226 227 225 226 231 238 240 245 249 254 259 253 253 259 265 275 289 288 280 286
331 328 328 326 325 325 330 336 339 337 336 336 334 334 333 332 322 308 291 290 286 265 249 244 242 241 236 232 230 229 229 229 227 218 214 208 208 207 209 208 211 216 221 221 221 219 218 219 219 220 222 222 222 220 223 226 225 225 230 233 237 234 237 232 232 230 228 225 226 228 238 244 244 242 247 255 255 249 250 252 265 274 286 291 285
333 334 329 328 330 333 337 341 340 337 336 335 334 333 331 329 329 326 319 305 286 270 263 254 247 243 238 234 232 228 227 226 225 218 209 206 208 211 207 208 208 212 216 218 221 219 218 218 221 222 222 223 222 223 223 225 227 227 230 232 234 235 236 233 231 232 227 223 224 222 229 238 238 241 246 249 255 255 257 262 263 261 261 271 288
331 328 327 327 331 334 341 342 339 337 333 331 331 331 330 329 327 326 322 320 315 303 277 260 252 245 243 239 235 229 226 226 225 222 210 204 207 208 206 207 208 208 210 213 215 217 218 217 220 224 223 223 223 223 224 226 227 231 232 233 232 231 234 235 231 229 229 225 223 220 221 232 236 241 243 246 247 250 253 251 252 255 255 262 268
332 330 328 330 332 338 342 337 337 335 333 332 330 331 330 330 328 323 321 316 311 307 296 276 258 252 246 241 237 232 228 226 224 220 213 208 205 205 203 206 205 205 207 208 209 215 219 219 219 224 223 222 223 226 227 227 224 229 231 235 231 228 230 230 228 226 225 224 224 223 222 229 232 233 238 243 244 247 252 258 255 250 252 252 263
327 325 325 329 335 339 339 337 335 335 335 335 334 334 335 335 331 329 324 324 321 314 302 288 269 256 250 247 242 236 229 224 220 214 214 211 207 204 203 204 207 205 206 206 209 215 218 220 220 220 221 223 224 226 226 224 223 225 229 230 229 226 230 233 230 222 218 222 222 221 222 226 224 231 234 238 243 243 244 251 252 253 250 251 255
325 325 325 330 336 337 336 335 333 333 336 338 338 338 335 334 333 333 329 325 321 318 312 300 291 274 259 250 245 236 231 224 220 214 212 210 205 202 203 206 205 209 205 206 214 217 220 221 222 222 222 222 223 224 223 222 222 226 227 229 231 229 230 232 233 229 220 216 218 222 223 223 224 228 233 233 234 239 242 245 250 250 252 250 250
322 324 326 333 334 333 333 332 335 337 336 337 337 334 334 334 334 332 330 327 326 324 319 318 310 294 273 261 252 243 233 225 220 214 209 205 200 201 202 202 209 212 206 212 215 220 222 223 224 224 223 223 225 226 224 221 223 224 226 225 227 228 230 234 233 233 224 219 216 218 222 219 221 222 231 238 240 241 237 247 247 249 252 253 247
324 323 327 333 330 330 330 334 336 335 333 332 332 332 330 330 333 333 330 327 325 322 321 318 315 307 292 276 261 246 233 226 221 216 213 207 201 200 197 203 209 207 206 212 218 220 222 222 223 224 223 225 225 225 223 223 224 225 225 224 225 228 231 232 231 231 227 220 217 221 223 221 221 224 227 233 235 241 241 244 248 251 254 254 255
323 324 328 328 324 324 326 330 334 333 331 330 329 329 328 327 327 330 328 323 321 320 319 318 316 311 302 288 268 248 237 229 223 217 213 207 202 197 196 201 204 206 207 209 215 219 221 222 225 226 225 223 223 223 223 223 226 226 226 229 231 231 233 233 233 233 231 225 223 225 225 221 220 223 223 223 226 228 230 232 236 241 246 251 251
323 328 331 324 319 317 319 319 320 321 321 321 324 324 323 322 320 318 324 322 319 317 313 312 313 312 306 296 275 253 240 232 227 222 213 205 202 196 198 200 201 207 209 209 213 217 222 223 225 227 227 225 223 221 221 223 223 226 230 231 232 235 237 234 232 231 228 225 223 223 225 219 216 221 223 223 224 224 225 228 232 232 237 240 242
325 329 324 317 314 318 320 319 318 315 309 307 310 318 315 315 316 316 313 320 319 317 316 311 310 311 306 297 284 262 244 236 228 221 213 204 200 197 197 199 202 206 206 210 214 216 220 225 227 228 228 227 223 220 221 226 224 226 232 235 237 231 228 227 228 229 226 224 224 225 227 220 217 217 221 222 225 225 225 227 228 232 233 236 237
333 331 322 320 323 324 324 322 316 311 306 304 300 309 312 311 310 316 319 318 318 317 314 312 306 308 308 297 285 270 250 238 227 218 212 203 199 197 196 200 198 204 205 210 214 218 222 225 227 229 228 225 222 219 226 229 226 233 237 234 229 228 225 224 226 227 227 229 229 228 225 223 220 217 217 221 221 224 225 228 231 230 232 235 238
334 328 328 326 324 324 324 321 320 316 309 301 302 301 307 309 313 318 321 322 319 312 311 306 304 306 306 303 291 276 260 240 224 215 209 204 199 197 198 196 196 201 207 211 215 218 222 226 227 227 228 222 222 228 228 228 232 235 235 228 227 226 225 226 228 228 226 227 227 227 227 223 220 218 217 217 218 220 220 226 230 227 227 227 230
328 328 328 326 325 324 322 322 319 316 313 308 307 306 303 309 315 319 318 314 309 301 303 304 300 302 305 307 298 272 256 242 226 214 207 200 195 192 192 194 197 203 206 212 215 218 223 224 225 227 226 227 229 226 226 226 230 232 225 226 225 227 227 229 227 226 225 223 223 225 228 226 222 222 221 221 220 219 219 225 227 223 222 222 226
328 326 326 326 325 324 324 322 320 315 310 308 305 305 309 314 317 319 319 317 315 302 299 296 292 295 304 304 300 276 242 233 221 212 207 198 191 189 190 193 197 201 205 208 213 218 220 222 221 228 230 227 227 227 225 225 227 220 220 223 224 225 225 225 227 228 228 226 225 225 228 227 228 229 230 231 231 228 224 228 234 220 218 219 223
328 328 329 328 326 324 320 318 317 318 317 306 306 307 313 314 315 317 318 317 313 301 301 295 285 292 300 300 292 277 248 230 222 213 203 194 191 189 190 193 196 199 204 209 209 213 217 216 226 231 228 227 228 228 226 227 233 231 222 217 219 224 226 228 228 228 230 228 223 222 227 231 233 237 240 240 240 238 237 231 226 224 223 220 220
328 329 330 329 327 328 330 326 324 324 326 320 312 311 309 308 315 317 318 319 316 307 301 291 288 292 302 296 290 274 249 231 214 210 200 191 188 187 191 193 194 197 204 206 210 211 213 217 228 228 229 230 231 230 231 238 240 241 237 216 204 215 221 227 227 226 227 229 230 228 228 227 227 228 232 239 243 244 240 237 234 227 221 220 219
329 327 327 327 327 328 326 325 329 330 328 327 322 313 306 314 317 317 316 314 310 308 307 294 292 303 302 293 281 260 245 232 223 202 195 184 188 189 190 191 194 197 200 205 208 206 218 221 226 225 228 232 240 239 243 245 245 244 241 236 202 201 216 222 225 226 228 229 230 230 229 227 228 232 235 233 231 237 242 241 238 236 231 221 219
325 325 326 327 327 327 328 332 333 333 329 329 314 308 309 314 315 315 315 313 311 309 308 287 292 290 293 296 294 278 259 243 216 190 183 184 183 191 190 188 188 193 201 207 206 204 216 216 221 226 234 239 239 244 245 246 247 246 242 237 231 208 206 217 222 225 226 224 224 228 229 228 225 227 229 228 226 228 230 234 239 239 236 233 224
325 327 329 330 331 332 334 336 333 330 325 316 307 308 315 318 319 318 316 315 314 310 307 299 292 291 291 290 290 280 268 254 222 199 188 192 187 188 187 188 191 198 203 202 209 219 222 225 222 227 234 240 244 241 243 247 247 245 243 240 234 234 232 229 229 229 230 229 225 226 230 233 235 229 214 206 212 212 215 217 221 227 234 235 236
329 330 331 334 336 336 334 331 329 326 323 321 321 325 324 322 320 318 318 317 314 312 313 317 311 305 301 302 291 283 270 243 242 225 207 195 193 187 187 188 190 202 205 212 217 217 221 220 220 224 233 240 244 248 250 249 245 242 240 238 238 236 233 233 234 232 232 231 229 230 234 238 243 247 206 205 209 209 204 207 212 222 228 232 235
331 332 332 334 334 333 332 331 328 327 327 329 329 329 326 323 322 321 320 317 314 313 314 317 311 315 318 313 306 300 292 262 231 232 220 203 189 185 186 183 187 198 208 216 217 217 222 228 228 227 229 241 249 251 253 252 248 242 237 235 233 232 232 232 231 230 230 231 229 227 230 235 238 234 223 219 222 206 197 204 211 218 225 228 236
337 334 332 333 332 331 332 332 328 328 330 331 331 329 327 324 323 322 320 317 316 320 330 324 311 318 320 318 307 301 291 267 228 219 216 206 184 180 182 183 187 192 210 216 221 227 228 229 225 225 229 241 251 253 250 251 247 241 234 232 230 228 229 228 228 227 229 229 228 231 231 234 232 221 212 216 221 219 193 201 208 220 226 235 241
336 333 331 330 329 329 329 330 331 330 334 334 332 331 329 326 325 325 321 324 342 339 325 316 317 321 322 313 303 301 284 256 234 229 211 204 178 185 176 173 186 191 205 211 215 219 223 226 228 231 236 240 248 252 252 252 247 239 232 225 224 227 226 226 226 225 223 230 227 228 234 220 206 215 214 218 223 228 212 188 204 207 221 232 238
334 332 329 325 326 331 333 334 335 335 333 334 334 331 328 325 324 325 336 341 330 323 316 317 324 328 324 319 316 306 297 274 250 235 209 203 176 173 172 180 193 209 218 221 217 216 220 233 234 233 235 240 247 250 247 249 247 240 230 221 219 222 222 223 224 223 221 209 190 194 207 215 213 216 226 229 233 237 236 211 199 209 217 234 230
332 329 328 328 333 333 329 330 333 333 333 332 329 325 322 318 324 336 333 328 322 319 328 338 336 329 325 322 318 313 298 274 242 235 202 180 182 179 188 189 193 203 206 206 205 212 226 237 241 241 243 240 238 243 247 249 249 243 234 225 217 219 222 219 221 217 215 208 208 213 216 214 220 229 238 245 247 249 250 242 210 212 219 231 230
329 331 336 335 330 329 329 334 340 338 332 328 325 323 317 326 339 332 329 329 342 351 345 336 331 327 323 320 317 313 298 267 238 203 185 185 191 190 182 180 188 187 188 197 201 215 232 242 245 241 240 243 241 240 244 250 250 244 238 231 228 225 220 224 215 211 217 219 215 217 223 229 236 246 251 253 254 254 255 256 252 241 227 229 235
333 337 338 336 329 329 334 341 336 332 331 328 325 318 326 342 333 339 348 348 340 338 335 327 321 320 318 315 314 311 300 246 222 199 181 184 183 171 175 177 177 180 179 189 203 213 230 241 245 248 248 243 242 241 240 243 247 247 241 237 229 222 221 215 211 213 213 221 221 224 232 236 241 247 249 252 254 252 252 249 249 252 258 254 244
335 336 335 334 329 331 338 337 333 334 331 329 318 331 348 343 343 352 339 332 334 331 325 320 316 314 314 312 311 306 285 241 207 202 195 167 176 170 169 180 174 183 189 196 210 212 224 240 245 250 247 244 239 237 240 239 240 242 241 237 232 224 224 203 197 210 216 221 221 216 224 230 241 247 249 247 250 259 280 293 314 314 326 344 319
333 332 333 330 330 338 334 331 335 331 330 322 339 357 346 340 336 337 331 328 327 329 324 318 316 315 313 309 305 302 279 254 202 194 195 188 170 165 175 180 173 186 196 199 209 212 222 233 240 242 244 242 234 236 238 238 233 233 232 232 233 233 221 209 208 215 222 232 231 227 225 234 241 245 247 253 74 71 19 4 351 360 8 296 284
332 335 335 333 338 335 331 331 332 332 327 342 0 352 349 336 334 331 330 329 330 327 323 320 318 315 312 308 305 303 282 250 213 207 202 199 188 180 190 180 183 194 195 203 208 213 224 229 235 242 242 240 243 239 233 221 237 239 233 247 270 260 253 236 227 225 219 220 235 248 306 83 91 87 84 51 20 31 3 340 327 324 315 280 269
337 335 334 340 341 334 334 334 333 332 333 360 351 352 342 337 332 332 330 329 326 323 320 318 317 315 312 310 310 304 291 239 204 204 199 194 190 189 190 193 192 191 193 200 211 212 220 224 227 235 236 234 226 216 207 196 202 241 260 285 294 285 263 255 244 240 251 221 95 91 81 78 93 76 72 50 20 360 351 334 305 266 258 254 244
337 335 341 339 334 334 334 335 332 335 346 349 347 339 342 337 331 328 326 326 325 325 322 319 317 315 312 312 310 300 270 247 207 198 196 194 194 199 200 205 204 204 196 203 202 213 216 215 219 215 222 213 196 196 197 198 200 207 238 241 240 242 240 230 224 227 221 159 131 110 113 122 164 147 129 142 160 218 247 247 277 279 269 280 290
334 340 341 338 338 337 336 331 333 344 340 342 338 337 336 335 331 329 328 328 327 325 321 317 314 312 311 311 306 293 266 242 218 203 212 211 203 200 208 212 213 210 205 204 206 216 218 217 215 206 196 193 185 192 206 212 222 217 219 227 212 211 210 226 226 212 104 98 123 164 169 165 229 256 240 218 145 247 246 65 38 269 255 261 248
336 336 336 338 341 336 331 329 344 342 341 336 334 334 334 332 329 329 330 329 328 324 320 316 314 311 310 312 312 294 259 234 222 211 204 208 217 215 205 212 212 214 221 221 220 216 215 206 216 226 221 196 187 187 203 210 221 225 223 224 227 218 217 220 225 189 140 138 159 188 178 196 174 246 256 263 287 304 282 269 217 303 265 255 241
339 336 341 343 340 335 329 335 344 344 338 333 333 334 331 330 329 329 331 329 326 323 318 316 315 312 311 310 310 299 266 240 226 212 205 203 209 228 225 217 218 227 228 232 227 227 225 222 216 215 229 248 250 260 220 211 219 224 255 190 139 140 119 113 111 109 107 130 173 209 187 153 132 142 223 237 79 187 269 280 278 263 232 237 241